Погода в Дзарджане

Погода в Дзарджане : погода сейчас, прогноз погоды и архив. Всё, что Вы хотите узнать о погоде в Дзарджане!

Поиск расширенной информации на нашем сайте:

Другие новости

Новости СМИ2

Главная страница сайта

Новости сайта

02.10.2013

Напоминаем, что на нашем новом сайте вы можете получить высокодетализированные прогнозы погоды по пунктам России, СНГ и мира (включающие важные для авиации метеовеличины, такие как направление и скорость ветра, видимость, явления погоды, количество и форма облачности, нижняя и верхняя граница облачности), а также ознакомиться с разнообразными материалами по авиационной метеорологии и подборкой полезных ссылок на эту тему.

Сайт Метеоцентр.Азия посвящён разработке технологий оптимизации авиаметеорологического обслуживания, включая проектирование и перспективное создание нескольких автоматизированных авиаметеорологических систем:
- система выпуска высокодетальных прогностических карт явлений погоды для нижнего воздушного пространства по России и ближнему зарубежью;
- система верификации прогнозов TAF (выпускаемых синоптиками официальных АМСГ РФ и ближнего зарубежья) и AUTOTAF (выпускаемых сайтом Метеоцентр.Азия) - выявление ошибок, онлайн-сопоставление с фактической погодой METAR, автоматическое внесение коррективов в прогнозы при резком отклонении фактической погоды от прогноза, подсчёт оправдываемости прогнозов по элементам и в целом;
- система обработки, анализа и отображения авиаметеорологической информации для применения провайдерами метеорологической информации.


Погода в Дзарджане - сегодня

Время (UTC), дата Ветер
(°,м/с) 
Видим.   Явления Облачность Т
(°С)
Тd
(°С)
f(%) Тe
(°С)
Pmin
(гПа)
dP
(гПа)
Po
(мм)
O2
(г/м3)
Тmin Tmax R s Состояние
почвы
21 26.05.17 тихо ()   20000 м    10/0 верхняя 
[Ci fib]
+4.7 -1.9 62 +5  998  -0.7  745  295           
00 27.05.17 360 (С) 20000 м    10/0 верхняя 
[Ci fib]
+7.5 -0.2 58 +8  997.7  -0.2  745  292  +3.4        влажная 
03 27.05.17 020 (С) 20000 м    8/0 средняя 
[Ac As]
+9.6 -2.2 44 +9  998.2  0.5  745  290           
06 27.05.17 020 (С) 20000 м    10/0 средняя 
[Ac As]
+10.3 -2.9 39 +10  999.4  1.2  746  290           
09 27.05.17 360 (С) 20000 м    10/0 средняя 
[Ac As]
+9.5 -2.4 43 +9  1001.5  748  291           
12 27.05.17 тихо ()   20000 м    10/0 средняя 
[Ac As]
+7.3 -3.6 46 +7  1003.7  2.2  749  294    +11.2       
15 27.05.17 тихо ()   20000 м    10/0 средняя 
[Ac As]
+5.3 -3.6 53 +5  1004.9  1.2  750  297           
18 27.05.17 тихо ()   20000 м    10/0 средняя 
[Ac As]
+1.9 -8.3 47 +2  1006.8  1.8  752  302           
21 27.05.17 тихо ()   20000 м    10/0 средняя, верхняя 
[Ac As|Ci fib]
+3.8 -1.4 69 +4  1007.3  0.6  752  299           
03 28.05.17 тихо ()   20000 м    10/0 средняя, верхняя 
[Ac As|Cc]
+7.1 -2.1 52 +7  1009.5  0.3  754  296           
06 28.05.17 360 (С) 20000 м    9/0 средняя 
[Ac As]
+8 -2.5 47 +9  1010.1  0.6  754  295           
09 28.05.17 360 (С) 20000 м    10/0 средняя 
[Ac As]
+8 -1.8 50 +9  1010.4  0.3  754  295           
15 28.05.17 тихо ()   20000 м    8/0 средняя 
[Ac trans]
+3.3 -2.4 66 +3  1012  0.6  755  301           
18 28.05.17 тихо ()   20000 м    4/0 средняя, верхняя 
[Ac trans|Ci fib]
+0.7 -0.5 92 +1  1012.7  0.6  756  304           
21 28.05.17 360 (С) 20000 м    3/3 1000 м 
[Sc]
+2.4 -0.3 82 +3  1013.1  0.5  756  302           
00 29.05.17 360 (С) 20000 м    4/4 1000 м 
[Sc]
+4.7 -2.3 60 +4  1013.5  0.4  757  300    +0.2      влажная 
03 29.05.17 360 (С) 20000 м    5/3 1000 м верхняя 
[Sc|Ci fib]
+5.9 -2.7 54 +5  1013.5  757  299           
06 29.05.17 360 (С) 20000 м    8/4 1000 м верхняя 
[Sc|Ci fib]
+7.4 -3.8 45 +7  1013  -0.4  756  297           
09 29.05.17 360 (С) 20000 м    5/4 1000 м средняя 
[Sc|As op]
+7.9 -4.6 41 +9  1013  756  297           
12 29.05.17 360 (С) 20000 м    9/9 1000 м 
[Sc]
+4.9 -4.9 49 +4  1014.2  1.1  757  300    +8.6       
15 29.05.17 360 (С) 20000 м    10/10 1000 м 
[Sc]
+0.9 -7.6 53 +2  1015.1  0.9  758  305           
18 29.05.17 360 (С) 20000 м    10/10 1000 м 
[Sc]
+0.6 -6.7 58 +1  1014.7  -0.5  757  305           
21 29.05.17 360 (С) 20000 м    8/8 600 м 
[Sc]
+0.5 -4.2 71 1014.9  0.2  758  305           
00 30.05.17 360 (С) 20000 м    4/4 600 м 
[Sc]
+1.3 -5.8 59 +1  1015.7  0.8  758  305  +0.3        влажная 
03 30.05.17 360 (С) 20000 м    3/3 600 м 
[Sc]
+2.4 -5.4 56 +2  1015.8  0.2  758  303           
Время (UTC), дата Ветер
(°,м/с) 
Видим.   Явления Облачность Т
(°С)
Тd
(°С)
f(%) Тe
(°С)
Pmin
(гПа)
dP
(гПа)
Po
(мм)
O2
(г/м3)
Тmin Tmax R s Состояние
почвы

Для получения пояснительной информации подведите курсор к названию столбца.

ПОГОДА в Дзарджане - архив

Всё, что Вы хотите узнать о погоде в Дзарджане - удобно и подробно!

Выберите нужную дату (начиная с 1 января 2015* года) и нажмите кнопку "Найти".
Будут отображены архивные сводки погоды по пункту Дзарджан, начиная с указанной даты.


Отображать данные в формате CSV (для использования в таблицах Excel)


Внимание! Наш архив погоды предназначен исключительно для личного некоммерческого использования в познавательных целях. Если Вам необходимы официальные справки о состоянии погоды (для производственных, юридических, коммерческих и т.п. целей), обращайтесь в органы Росгидромета.

*Примечание: данная дата относится к архиву по метеостанциям СССР (Россия, СНГ, Балтия).
Архив по метеостанциям Зарубежной Европы и Азии (кроме Китая) хранится 10 дней, по другим регионам земного шара (Китай, Африка, Америка, Австралия, Океания) - 1 день.

Дзарджан - район местоположения метеостанции


Название, широта, долгота, высота метеостанции:
Дзарджан 68.7°ш. 124°д. 39 м над ур. моря [Российская Федерация]

Дополнительная информация

В oтличие oт бoльшинства пoгoдных сайтoв мы публикуем пoдрoбную метеoинфoрмацию в детальнoм прoфессиoнальнoм фoрмате.

Характеристики температуры и влажнoсти вoздуха измеряются на высoте 2 м в тени вдали oт зданий и деревьев.
Скoрoсть ветра измеряется на высoте 10 м (на урoвне рoста челoвека скoрoсть ветра ниже в 1.5-2 раза). Если метеoстанция нахoдится в гoрoде или в лесу, тo скoрoсть ветра занижена на 2-4 м/с пo сравнению с oткрытым местoм. Скoрoсть ветра над акватoриями крупных рек и oзёр, а также на вершинах хoлмoв на 2-5 м/с выше, чем в oбычных услoвиях.
Атмoсфернoе давление в разных тoчках местнoсти мoжет значительнo oтличаться oт давления на метеoстанции, в зависимoсти oт услoвий рельефа (при пoдъёме на 10 м давление пoнижается примернo на 1 мм рт.ст.).